When you browse on this site, cookies collect data to enhance your experience and personalize the content and advertising you see.
Visit our Privacy Policy to learn more. By continuing to use the site, you agree to this use of cookies and data.
  • En España
  • Lista de países
  • Para 7 días
  • Temperatura del agua
  • El tiempo en el mapa
  • Informadores
  • user-avatar
    Iniciar sesión

    Tiempo cada hora Bucenino

    Hoy, 2 Junio, Martes

    Tiempo Temperatura Precipitaciones Viento Presión Humedad
    00:00 +6°C° 0.8 mm 7 mps 738 mmHg 93%
    01:00 +6°C° 0.8 mm 7 mps 737 mmHg 93%
    02:00 +6°C° 0 mm 8 mps 737 mmHg 91%
    03:00 +6°C° 0.6 mm 8 mps 737 mmHg 92%
    04:00 +5°C° 0.6 mm 7 mps 737 mmHg 92%
    05:00 +5°C° 0.6 mm 7 mps 736 mmHg 93%
    06:00 +5°C° 1.4 mm 7 mps 736 mmHg 94%
    07:00 +5°C° 1.4 mm 8 mps 737 mmHg 94%
    08:00 +6°C° 0 mm 8 mps 737 mmHg 96%
    09:00 +6°C° 0.1 mm 8 mps 737 mmHg 94%
    10:00 +8°C° 0.1 mm 7 mps 737 mmHg 93%
    11:00 +8°C° 0.1 mm 7 mps 737 mmHg 92%
    12:00 +9°C° 0 mm 7 mps 737 mmHg 90%
    13:00 +9°C° 0 mm 7 mps 737 mmHg 89%
    14:00 +9°C° 0 mm 8 mps 737 mmHg 88%
    15:00 +9°C° 0.1 mm 7 mps 737 mmHg 87%
    16:00 +10°C° 0.1 mm 7 mps 737 mmHg 86%
    17:00 +10°C° 0.1 mm 7 mps 737 mmHg 85%
    18:00 +9°C° 0.3 mm 6 mps 737 mmHg 88%
    19:00 +9°C° 0.3 mm 6 mps 737 mmHg 90%
    20:00 +8°C° 0.3 mm 5 mps 737 mmHg 93%
    21:00 +8°C° 0.2 mm 5 mps 737 mmHg 94%
    22:00 +8°C° 0.2 mm 4 mps 737 mmHg 95%
    23:00 +8°C° 0.2 mm 4 mps 737 mmHg 95%

    Mañana, 3 Junio, Miércoles

    Tiempo Temperatura Precipitaciones Viento Presión Humedad
    00:00 +9°C° 0.1 mm 3 mps 737 mmHg 96%
    01:00 +9°C° 0.1 mm 3 mps 737 mmHg 97%
    02:00 +9°C° 0.1 mm 3 mps 737 mmHg 97%
    03:00 +9°C° 0 mm 2 mps 737 mmHg 97%
    04:00 +9°C° 0 mm 2 mps 736 mmHg 97%
    05:00 +9°C° 0 mm 2 mps 736 mmHg 98%
    06:00 +10°C° 0 mm 2 mps 736 mmHg 94%
    07:00 +12°C° 0 mm 1 mps 736 mmHg 91%
    08:00 +13°C° 0 mm 1 mps 736 mmHg 88%
    09:00 +14°C° 0.1 mm 1 mps 736 mmHg 82%
    10:00 +16°C° 0.1 mm 1 mps 736 mmHg 75%
    11:00 +18°C° 0.1 mm 1 mps 736 mmHg 68%
    12:00 +18°C° 0.1 mm 1 mps 736 mmHg 64%
    13:00 +19°C° 0.1 mm 1 mps 736 mmHg 61%
    14:00 +20°C° 0.1 mm 1 mps 736 mmHg 57%
    15:00 +19°C° 0 mm 1 mps 735 mmHg 59%
    16:00 +19°C° 0 mm 1 mps 735 mmHg 61%
    17:00 +19°C° 0 mm 1 mps 735 mmHg 63%
    18:00 +16°C° 0 mm 1 mps 735 mmHg 71%
    19:00 +14°C° 0 mm 1 mps 734 mmHg 78%
    20:00 +13°C° 0 mm 1 mps 734 mmHg 86%
    21:00 +12°C° 0 mm 1 mps 734 mmHg 87%
    22:00 +10°C° 0 mm 0 mps 734 mmHg 89%
    23:00 +9°C° 0 mm 0 mps 733 mmHg 90%

    Pasado mañana, 4 Junio, Jueves

    Tiempo Temperatura Precipitaciones Viento Presión Humedad
    00:00 +10°C° 0 mm 1 mps 733 mmHg 91%
    01:00 +9°C° 0 mm 1 mps 733 mmHg 91%
    02:00 +9°C° 0 mm 1 mps 733 mmHg 91%
    03:00 +9°C° 0 mm 1 mps 733 mmHg 91%
    04:00 +8°C° 0 mm 2 mps 733 mmHg 91%
    05:00 +9°C° 0 mm 2 mps 733 mmHg 91%
    06:00 +10°C° 0 mm 2 mps 733 mmHg 87%
    07:00 +12°C° 0 mm 3 mps 733 mmHg 83%
    08:00 +14°C° 0 mm 3 mps 734 mmHg 79%
    09:00 +15°C° 0.3 mm 4 mps 734 mmHg 78%
    10:00 +15°C° 0.3 mm 4 mps 734 mmHg 77%
    11:00 +16°C° 0.3 mm 5 mps 734 mmHg 75%
    12:00 +16°C° 0.9 mm 5 mps 734 mmHg 77%
    13:00 +16°C° 0.9 mm 5 mps 734 mmHg 79%
    14:00 +16°C° 0.9 mm 5 mps 734 mmHg 81%
    15:00 +17°C° 0.4 mm 4 mps 733 mmHg 81%
    16:00 +17°C° 0.4 mm 4 mps 733 mmHg 80%
    17:00 +17°C° 0.4 mm 4 mps 733 mmHg 80%
    18:00 +14°C° 0.2 mm 4 mps 733 mmHg 84%
    19:00 +13°C° 0.2 mm 3 mps 733 mmHg 88%
    20:00 +12°C° 0.2 mm 3 mps 734 mmHg 91%
    21:00 +11°C° 0 mm 3 mps 734 mmHg 93%
    22:00 +10°C° 0 mm 3 mps 734 mmHg 94%
    23:00 +10°C° 0 mm 3 mps 734 mmHg 95%

    5 Junio, Viernes

    Tiempo Temperatura Precipitaciones Viento Presión Humedad
    00:00 +10°C° 0 mm 3 mps 734 mmHg 95%
    01:00 +9°C° 0 mm 3 mps 734 mmHg 96%
    02:00 +9°C° 0 mm 3 mps 734 mmHg 96%
    03:00 +9°C° 0 mm 3 mps 734 mmHg 97%
    04:00 +10°C° 0 mm 3 mps 734 mmHg 97%
    05:00 +10°C° 0 mm 4 mps 734 mmHg 97%
    06:00 +11°C° 0 mm 4 mps 734 mmHg 92%
    07:00 +13°C° 0 mm 4 mps 735 mmHg 88%
    08:00 +14°C° 0 mm 4 mps 735 mmHg 84%
    09:00 +15°C° 0.1 mm 4 mps 735 mmHg 78%
    10:00 +17°C° 0.1 mm 4 mps 735 mmHg 73%
    11:00 +19°C° 0.1 mm 4 mps 735 mmHg 67%
    12:00 +19°C° 0.1 mm 4 mps 735 mmHg 67%
    13:00 +19°C° 0.1 mm 5 mps 735 mmHg 67%
    14:00 +20°C° 0.1 mm 5 mps 735 mmHg 66%
    15:00 +20°C° 0.2 mm 4 mps 735 mmHg 69%
    16:00 +19°C° 0.2 mm 4 mps 735 mmHg 72%
    17:00 +19°C° 0.2 mm 4 mps 735 mmHg 76%
    18:00 +18°C° 0.2 mm 4 mps 735 mmHg 80%
    19:00 +17°C° 0.2 mm 4 mps 735 mmHg 85%
    20:00 +15°C° 0.2 mm 4 mps 735 mmHg 90%
    21:00 +14°C° 0 mm 4 mps 735 mmHg 91%
    22:00 +14°C° 0 mm 4 mps 735 mmHg 93%
    23:00 +14°C° 0 mm 3 mps 735 mmHg 94%

    6 Junio, Sábado

    Tiempo Temperatura Precipitaciones Viento Presión Humedad
    00:00 +14°C° 0.1 mm 4 mps 735 mmHg 95%
    01:00 +14°C° 0.1 mm 4 mps 735 mmHg 96%
    02:00 +14°C° 0.1 mm 4 mps 735 mmHg 97%
    03:00 +14°C° 1.7 mm 4 mps 735 mmHg 97%
    04:00 +14°C° 1.7 mm 4 mps 735 mmHg 97%
    05:00 +14°C° 1.7 mm 5 mps 735 mmHg 98%
    06:00 +15°C° 0.1 mm 5 mps 735 mmHg 96%
    07:00 +16°C° 0.1 mm 5 mps 735 mmHg 95%
    08:00 +16°C° 0.1 mm 5 mps 735 mmHg 94%
    09:00 +19°C° 0.2 mm 5 mps 735 mmHg 90%
    10:00 +20°C° 0.2 mm 5 mps 736 mmHg 87%
    11:00 +21°C° 0.2 mm 5 mps 736 mmHg 83%
    12:00 +20°C° 1.2 mm 5 mps 736 mmHg 86%
    13:00 +20°C° 1.2 mm 5 mps 736 mmHg 89%
    14:00 +19°C° 1.2 mm 5 mps 737 mmHg 91%
    15:00 +19°C° 0.2 mm 4 mps 737 mmHg 91%
    16:00 +19°C° 0.2 mm 3 mps 737 mmHg 90%
    17:00 +19°C° 0.2 mm 3 mps 738 mmHg 90%
    18:00 +18°C° 0 mm 2 mps 738 mmHg 91%
    19:00 +18°C° 0 mm 2 mps 739 mmHg 93%
    20:00 +18°C° 0 mm 1 mps 739 mmHg 94%
    21:00 +16°C° 0 mm 1 mps 739 mmHg 94%
    22:00 +15°C° 0 mm 1 mps 740 mmHg 95%
    23:00 +15°C° 0 mm 1 mps 740 mmHg 95%

    7 Junio, Domingo

    Tiempo Temperatura Precipitaciones Viento Presión Humedad
    00:00 +14°C° 0 mm 1 mps 741 mmHg 95%
    01:00 +14°C° 0 mm 1 mps 741 mmHg 95%
    02:00 +13°C° 0 mm 1 mps 741 mmHg 95%
    03:00 +14°C° 0 mm 1 mps 741 mmHg 95%
    04:00 +14°C° 0 mm 1 mps 742 mmHg 95%
    05:00 +14°C° 0 mm 2 mps 742 mmHg 94%
    06:00 +16°C° 0 mm 2 mps 742 mmHg 90%
    07:00 +18°C° 0 mm 2 mps 742 mmHg 86%
    08:00 +19°C° 0 mm 2 mps 743 mmHg 82%
    09:00 +21°C° 0 mm 1 mps 743 mmHg 78%
    10:00 +23°C° 0 mm 1 mps 743 mmHg 74%
    11:00 +24°C° 0 mm 1 mps 743 mmHg 70%
    12:00 +24°C° 0.1 mm 1 mps 743 mmHg 69%
    13:00 +24°C° 0.1 mm 1 mps 743 mmHg 68%
    14:00 +25°C° 0.1 mm 1 mps 743 mmHg 67%
    15:00 +25°C° 0.1 mm 1 mps 743 mmHg 70%
    16:00 +24°C° 0.1 mm 1 mps 743 mmHg 72%
    17:00 +24°C° 0.1 mm 1 mps 742 mmHg 75%
    18:00 +23°C° 0.7 mm 1 mps 742 mmHg 80%
    19:00 +22°C° 0.7 mm 1 mps 742 mmHg 85%
    20:00 +20°C° 0.7 mm 1 mps 742 mmHg 90%
    21:00 +20°C° 0.9 mm 1 mps 742 mmHg 92%
    22:00 +19°C° 0.9 mm 1 mps 742 mmHg 93%
    23:00 +19°C° 0.9 mm 1 mps 742 mmHg 94%
    Mostrar más